Stations météo

réclame
Mon MeteoGroup
Biscarosse, France (7503): Température de l'air & dewpoint: 08.08.2018 19:00:00 - 14.08.2018 19:00:00 (CEST)Biscarosse, France (7503): Température de l'air 5cm: 08.08.2018 19:00:00 - 14.08.2018 19:00:00 (CEST)Biscarosse, France (7503): Température de l'air -20cm & Température de l'air -100cm: 08.08.2018 19:00:00 - 14.08.2018 19:00:00 (CEST)Biscarosse, France (7503): Vitesse du vent & gusts: 08.08.2018 19:00:00 - 14.08.2018 19:00:00 (CEST)Biscarosse, France (7503): Direction du vent: 08.08.2018 19:00:00 - 14.08.2018 19:00:00 (CEST)Biscarosse, France (7503): reduced air pressure: 08.08.2018 19:00:00 - 14.08.2018 19:00:00 (CEST)Biscarosse, France (7503): visibility: 08.08.2018 19:00:00 - 14.08.2018 19:00:00 (CEST)Biscarosse, France (7503): Ensoleillement: 08.08.2018 19:00:00 - 14.08.2018 19:00:00 (CEST)Biscarosse, France (7503): Quantités de précipitations: 08.08.2018 19:00:00 - 14.08.2018 19:00:00 (CEST)
Date & Time tt [°C] td [°C] tt 5cm [°C] tt -20cm [°C] tt -100cm [°C] ff [km/h] ff [knt] fx [km/h] fx [knt] dd ppp [hPa] vv [km] sd [min] rr [mm]
14.08.2018 19:00:00 22,7 15,5 25,0 29,8 26,9 22 12 30 16 NNW 1022,2 20 60 0,0
14.08.2018 18:00:00 23,3 14,8 25,7 29,2 27,0 21 11 27 14 NNW 1022,3 20 60 0,0
14.08.2018 17:00:00 23,8 15,6 30,8 28,6 27,0 19 11 29 16 NNW 1022,2 20 60 0,0
14.08.2018 16:00:00 24,1 15,0 31,5 27,8 27,0 21 11 26 14 NNW 1022,1 20 60 0,0
14.08.2018 15:00:00 23,8 15,6 32,5 27,1 27,1 20 11 24 13 NW 1022,1 20 60 0,0
14.08.2018 14:00:00 24,0 16,8 29,1 26,5 27,1 16 8 22 12 NNW 1022,1 20 39 0,0
14.08.2018 13:00:00 23,9 16,2 28,2 26,1 27,1 17 9 21 12 NNW 1021,9 20 41 0,0
14.08.2018 12:00:00 22,7 16,0 28,1 25,7 27,1 11 6 20 11 NNW 1021,7 20 46 0,0
14.08.2018 11:00:00 22,6 14,9 24,3 25,6 27,1 12 6 21 11 N 1021,4 20 49 0,0
14.08.2018 10:00:00 21,4 16,1 22,3 25,7 27,2 5 3 26 14 NNE 1021,0 20 6 0,0
14.08.2018 09:00:00 21,3 15,8 20,8 25,8 27,2 17 9 29 16 N 1020,4 20 3 0,0
14.08.2018 08:00:00 20,7 15,9 20,4 25,9 27,2 17 9 30 16 N 1019,8 20 0 0,0
14.08.2018 07:00:00 20,8 16,2 20,4 26,1 27,2 22 12 34 18 NNW 1019,1 20 0 0,0
14.08.2018 06:00:00 21,0 15,8 20,2 26,3 27,2 23 12 31 17 NW 1018,5 20 0 0,0
14.08.2018 05:00:00 21,0 14,4 20,3 26,5 27,2 23 12 31 17 NW 1018,5 20 0 0,0
14.08.2018 04:00:00 20,7 15,5 20,2 26,8 27,3 19 10 31 17 NW 1018,5 20 0 0,0
14.08.2018 03:00:00 20,6 16,0 20,1 26,9 27,2 25 14 37 20 NW 1018,3 20 0 0,0
14.08.2018 02:00:00 20,9 16,5 20,3 27,2 27,2 28 15 35 19 WNW 1018,3 20 0 0,0
14.08.2018 01:00:00 20,9 16,1 20,3 27,5 27,2 26 14 34 19 WNW 1018,3 20 0 0,0
14.08.2018 00:00:00 20,7 16,1 19,9 27,8 27,3 29 16 39 21 NW 1017,9 20 0 0,0
13.08.2018 23:00:00 20,9 16,7 20,4 28,1 27,3 27 15 35 19 WNW 1017,5 20 0 0,0
13.08.2018 22:00:00 20,9 16,5 20,4 28,4 27,3 27 15 35 19 WNW 1017,1 20 0 0,0
13.08.2018 21:00:00 21,0 17,4 20,6 28,7 27,3 32 17 39 21 WNW 1016,6 20 8 0,0
13.08.2018 20:00:00 21,1 17,3 21,4 28,9 27,3 26 14 34 18 WNW 1016,2 20 29 0,0
13.08.2018 19:00:00 20,7 18,3 20,2 28,9 27,3 25 13 34 18 WNW 1016,3 20 6 0,0
13.08.2018 18:00:00 20,1 18,6 19,8 28,9 27,3 22 12 35 19 W 1016,2 15 0 1,6
13.08.2018 17:00:00 20,7 18,6 20,6 28,6 27,3 20 11 42 23 WNW 1016,2 20 13 0,4
13.08.2018 16:00:00 23,1 18,8 25,4 28,3 27,3 25 14 42 23 WNW 1016,0 20 16 0,0
13.08.2018 15:00:00 23,8 18,2 29,3 27,9 27,4 24 13 32 17 W 1016,0 20 48 0,0
13.08.2018 14:00:00 23,0 18,7 22,9 27,7 27,3 25 13 33 18 WNW 1015,9 20 16 0,0
13.08.2018 13:00:00 24,1 19,0 25,5 27,6 27,3 21 11 30 16 WSW 1015,9 20 21 0,0
13.08.2018 12:00:00 22,5 17,8 23,8 27,7 27,3 18 10 24 13 W 1015,8 20 2 0,0
13.08.2018 11:00:00 22,1 17,9 22,2 27,9 27,3 18 10 26 14 WNW 1015,3 20 0 0,0
13.08.2018 10:00:00 21,7 17,7 22,1 28,2 27,3 22 12 30 16 WNW 1014,9 20 0 0,0
13.08.2018 09:00:00 21,5 16,9 20,8 28,5 27,3 21 12 31 17 W 1014,5 20 1 0,0
13.08.2018 08:00:00 20,9 16,5 18,6 28,9 27,3 19 10 28 15 W 1014,2 20 0 0,0
13.08.2018 07:00:00 20,5 16,5 18,5 29,3 27,2 21 12 27 15 WNW 1013,9 20 0 0,0
13.08.2018 06:00:00 20,6 17,8 19,0 29,7 27,2 19 10 25 14 W 1013,9 20 0 0,0
13.08.2018 05:00:00 20,0 18,0 19,1 30,0 27,2 16 8 35 19 W 1014,0 13 0 1,0
13.08.2018 04:00:00 21,0 19,1 20,0 30,4 27,2 22 12 31 17 WNW 1014,2 19 0 0,0
13.08.2018 03:00:00 20,9 19,2 20,0 30,7 27,2 25 14 40 22 WNW 1014,2 19 0 1,4
13.08.2018 02:00:00 22,2 19,9 22,1 31,0 27,1 23 12 31 17 WSW 1014,4 20 0 0,0
13.08.2018 01:00:00 22,4 19,9 22,2 31,4 27,2 27 15 34 19 W 1014,6 20 0 0,0
13.08.2018 00:00:00 22,4 19,8 21,8 31,7 27,2 26 14 31 17 W 1014,5 20 0 0,0
12.08.2018 23:00:00 22,3 19,3 21,7 32,0 27,1 23 13 27 15 W 1014,3 20 0 0,0
12.08.2018 22:00:00 22,3 18,9 21,8 32,2 27,2 16 9 29 16 W 1014,4 20 0 0,0
12.08.2018 21:00:00 22,8 19,0 23,1 32,2 27,1 23 13 29 16 W 1014,1 20 41 0,0
12.08.2018 20:00:00 22,9 19,3 23,9 32,2 27,2 22 12 28 15 W 1013,5 20 5 0,0
12.08.2018 19:00:00 23,8 19,1 25,5 31,9 27,2 22 12 29 16 WNW 1013,1 20 27 0,0
12.08.2018 18:00:00 24,0 19,1 26,5 31,4 27,2 16 9 24 13 NW 1012,7 20 48 0,0
12.08.2018 17:00:00 25,3 19,2 32,0 30,7 27,2 17 9 23 12 NW 1013,3 20 60 0,0
12.08.2018 16:00:00 25,6 19,3 35,0 30,0 27,2 15 8 18 10 WNW 1013,7 20 60 0,0
12.08.2018 15:00:00 25,9 20,0 35,1 29,3 27,2 13 7 16 9 WNW 1014,2 20 60 0,0
12.08.2018 14:00:00 26,5 20,8 35,5 28,6 27,2 11 6 15 8 W 1014,3 20 60 0,0
12.08.2018 13:00:00 25,7 20,3 34,0 28,1 27,2 11 6 23 12 W 1014,6 20 60 0,0
12.08.2018 12:00:00 26,0 21,2 33,0 27,8 27,2 19 11 24 13 SW 1014,9 20 60 0,0
12.08.2018 11:00:00 26,2 19,8 28,7 27,7 27,2 15 8 21 11 SSW 1014,6 20 45 0,0
12.08.2018 10:00:00 24,6 16,3 23,5 27,8 27,2 7 4 15 8 S 1014,6 20 49 0,0
12.08.2018 09:00:00 21,9 13,3 21,6 28,1 27,2 8 5 14 8 SSE 1014,8 20 0 0,0
12.08.2018 08:00:00 21,4 12,8 20,8 28,3 27,1 6 3 22 12 SSE 1014,8 20 0 0,0
12.08.2018 07:00:00 21,2 12,1 19,5 28,7 27,1 11 6 21 11 ESE 1014,8 20 0 0,0
12.08.2018 06:00:00 20,5 12,7 19,7 29,0 27,1 5 3 25 13 SSE 1015,1 20 0 0,0
12.08.2018 05:00:00 21,0 11,9 20,0 29,3 27,1 14 7 23 13 ESE 1015,7 20 0 0,0
12.08.2018 04:00:00 20,8 11,7 19,6 29,7 27,1 13 7 23 12 ESE 1016,4 20 0 0,0
12.08.2018 03:00:00 20,7 11,1 19,5 30,0 27,1 11 6 17 9 E 1016,9 20 0 0,0
12.08.2018 02:00:00 21,2 10,9 20,1 30,4 27,1 11 6 17 9 E 1017,7 20 0 0,0
12.08.2018 01:00:00 21,7 11,4 20,4 30,8 27,1 12 7 21 11 E 1018,1 20 0 0,0
12.08.2018 00:00:00 22,2 11,3 20,9 31,1 27,1 13 7 21 11 E 1018,7 20 0 0,0
11.08.2018 23:00:00 23,2 12,2 21,0 31,4 27,1 12 7 20 11 E 1018,8 20 0 0,0
11.08.2018 22:00:00 23,0 15,6 21,4 31,5 27,1 7 4 19 10 E 1018,7 20 0 0,0
11.08.2018 21:00:00 24,7 18,2 23,8 31,5 27,1 13 7 28 15 N 1018,6 19 35 0,0
11.08.2018 20:00:00 25,7 18,1 28,3 31,3 27,2 23 12 33 18 N 1018,7 20 60 0,0
11.08.2018 19:00:00 26,3 17,1 28,5 30,8 27,2 25 14 34 18 N 1019,1 20 60 0,0
11.08.2018 18:00:00 26,0 17,6 28,3 30,2 27,2 23 13 30 16 N 1019,7 20 60 0,0
11.08.2018 17:00:00 26,4 17,2 33,5 29,4 27,3 23 12 32 17 NNW 1020,1 20 60 0,0
11.08.2018 16:00:00 29,3 12,7 35,6 28,5 27,3 17 9 21 11 W 1021,1 20 60 0,0
11.08.2018 15:00:00 28,6 11,2 34,7 27,6 27,3 9 5 24 13 SE 1021,9 20 60 0,0
11.08.2018 14:00:00 27,1 11,6 33,8 26,9 27,3 12 7 26 14 ENE 1022,6 20 60 0,0
11.08.2018 13:00:00 26,0 11,4 32,4 26,4 27,3 11 6 28 15 E 1023,3 20 60 0,0
11.08.2018 12:00:00 25,2 11,4 28,0 26,0 27,3 12 7 25 14 E 1024,0 20 55 0,0
11.08.2018 11:00:00 23,8 12,7 25,6 26,0 27,3 15 8 28 15 E 1024,3 20 60 0,0
11.08.2018 10:00:00 20,6 12,6 22,8 26,1 27,3 13 7 30 16 E 1024,6 20 60 0,0
11.08.2018 09:00:00 18,9 12,6 16,9 26,4 27,3 18 10 31 17 E 1024,6 20 58 0,0
11.08.2018 08:00:00 16,6 12,7 16,0 26,7 27,3 15 8 31 17 E 1024,9 20 4 0,0
11.08.2018 07:00:00 16,7 13,0 16,1 27,1 27,3 12 6 23 13 ENE 1024,9 20 0 0,0
11.08.2018 06:00:00 16,9 13,0 16,5 27,4 27,3 12 6 23 13 ENE 1024,7 20 0 0,0
11.08.2018 05:00:00 17,2 13,3 16,7 27,7 27,3 16 9 27 15 E 1025,1 20 0 0,0
11.08.2018 04:00:00 17,4 13,5 16,6 28,1 27,3 10 5 20 11 ENE 1025,3 20 0 0,0
11.08.2018 03:00:00 17,6 13,1 17,1 28,4 27,3 9 5 14 8 NE 1025,8 20 0 0,0
11.08.2018 02:00:00 17,7 12,8 17,3 28,8 27,3 8 5 16 9 NE 1026,0 20 0 0,0
11.08.2018 01:00:00 17,8 12,7 17,2 29,2 27,3 9 5 14 8 ENE 1026,3 20 0 0,0
11.08.2018 00:00:00 18,1 12,1 17,7 29,5 27,3 8 5 16 8 NE 1026,2 20 0 0,0
10.08.2018 23:00:00 18,6 12,1 18,1 29,8 27,4 10 5 17 9 NE 1025,8 20 0 0,0
10.08.2018 22:00:00 19,1 12,4 18,4 30,0 27,4 9 5 23 13 NE 1025,4 20 0 0,0
10.08.2018 21:00:00 20,9 11,8 20,9 30,0 27,4 14 8 32 18 NNE 1024,9 20 55 0,0
10.08.2018 20:00:00 22,5 12,4 25,5 29,9 27,5 23 12 34 19 N 1024,9 20 60 0,0
10.08.2018 19:00:00 23,2 11,9 25,9 29,5 27,5 24 13 32 18 N 1024,8 20 60 0,0
10.08.2018 18:00:00 23,8 12,1 26,8 28,9 27,6 24 13 29 16 NNW 1025,0 20 60 0,0
10.08.2018 17:00:00 23,9 12,2 31,0 28,1 27,6 22 12 26 14 NNW 1025,1 20 60 0,0
10.08.2018 16:00:00 23,8 11,8 32,6 27,4 27,6 20 11 26 14 NNW 1025,4 20 60 0,0
10.08.2018 15:00:00 23,8 11,1 32,6 26,7 27,7 17 9 22 12 NW 1025,6 20 60 0,0
10.08.2018 14:00:00 23,2 11,9 28,1 26,2 27,7 11 6 17 9 NW 1025,7 20 56 0,0
10.08.2018 13:00:00 22,1 13,4 24,2 25,8 27,7 10 5 13 7 NW 1026,0 20 9 0,0
10.08.2018 12:00:00 23,0 12,0 27,6 25,5 27,7 4 2 17 9 SSW 1026,0 20 51 0,0
10.08.2018 11:00:00 21,4 13,1 24,5 25,4 27,7 10 5 17 9 ESE 1026,1 20 57 0,0
10.08.2018 10:00:00 19,9 14,5 22,8 25,5 27,7 11 6 16 9 ESE 1026,2 20 58 0,0
10.08.2018 09:00:00 17,8 14,1 16,6 25,7 27,7 9 5 18 10 ESE 1026,2 20 60 0,0
10.08.2018 08:00:00 15,6 13,6 14,9 26,0 27,7 10 5 15 8 ESE 1025,8 20 16 0,0
10.08.2018 07:00:00 15,2 13,0 14,2 26,4 27,8 9 5 14 7 ESE 1025,6 20 0 0,0
10.08.2018 06:00:00 15,2 13,0 14,2 26,7 27,8 9 5 13 7 ESE 1025,2 20 0 0,0
10.08.2018 05:00:00 15,5 13,2 14,3 27,0 27,8 8 5 11 6 E 1024,9 20 0 0,0
10.08.2018 04:00:00 15,8 13,3 15,2 27,3 27,8 9 5 13 7 E 1025,1 20 0 0,0
10.08.2018 03:00:00 16,4 13,9 15,8 27,6 27,8 7 4 11 6 E 1025,2 20 0 0,0
10.08.2018 02:00:00 16,7 14,3 15,8 28,0 27,9 7 4 10 5 E 1025,3 20 0 0,0
10.08.2018 01:00:00 16,9 14,5 16,2 28,2 27,9 6 4 11 6 E 1025,1 20 0 0,0
10.08.2018 00:00:00 18,4 15,1 16,8 28,4 27,9 4 2 16 9 ENE 1024,4 20 0 0,2
09.08.2018 23:00:00 19,0 14,0 18,5 28,7 27,9 7 4 21 11 NE 1024,0 20 0 0,0
09.08.2018 22:00:00 19,9 14,0 18,7 28,8 28,0 13 7 22 12 NNW 1023,6 20 0 0,0
09.08.2018 21:00:00 20,4 13,4 20,1 28,8 28,0 14 8 25 13 NNW 1023,0 20 43 0,0
09.08.2018 20:00:00 21,7 14,1 23,4 28,7 28,1 16 9 27 15 NW 1022,7 20 47 0,0
09.08.2018 19:00:00 22,3 13,1 24,8 28,4 28,1 23 13 32 18 NW 1022,2 20 47 0,0
09.08.2018 18:00:00 22,5 14,3 24,2 28,2 28,2 23 12 35 19 NW 1021,6 20 28 0,0
09.08.2018 17:00:00 21,9 14,8 26,5 27,7 28,2 17 9 25 14 WNW 1021,1 20 45 0,0
09.08.2018 16:00:00 22,4 15,3 26,0 27,4 28,2 20 11 29 16 WNW 1020,9 20 48 0,0
09.08.2018 15:00:00 20,3 14,9 23,0 27,1 28,2 19 11 48 26 NW 1020,6 20 9 0,0
09.08.2018 14:00:00 22,3 15,6 25,2 26,8 28,2 22 12 37 20 WNW 1020,1 20 32 0,0
09.08.2018 13:00:00 21,3 15,4 26,0 26,7 28,2 29 16 41 22 NW 1019,7 20 57 0,0
09.08.2018 12:00:00 20,0 16,2 23,0 26,7 28,3 38 21 50 27 NW 1018,9 20 43 0,0
09.08.2018 11:00:00 20,0 16,2 18,2 26,8 28,2 38 21 53 29 WNW 1017,5 20 25 0,0
09.08.2018 10:00:00 18,1 16,9 17,3 26,9 28,2 18 10 29 16 WNW 1016,8 19 0 1,2
09.08.2018 09:00:00 17,9 16,8 17,5 27,4 28,2 20 11 32 17 WNW 1016,1 3,4 0 1,8
09.08.2018 08:00:00 17,9 16,6 17,3 27,8 28,2 22 12 34 19 WNW 1014,9 15 5 2,2
09.08.2018 07:00:00 18,9 16,9 18,1 28,3 28,2 26 14 44 24 NW 1013,6 18 0 0,0
09.08.2018 06:00:00 18,9 17,2 18,1 28,5 28,2 28 15 42 23 NNW 1012,9 20 0 0,0
09.08.2018 05:00:00 18,6 17,1 17,7 28,8 28,3 33 18 41 22 NNW 1011,6 20 0 0,0
09.08.2018 04:00:00 19,4 18,4 17,7 28,6 28,2 29 16 52 28 WSW 1010,2 3,6 0 13,0
09.08.2018 03:00:00 18,2 16,9 17,5 30,7 28,2 5 3 27 15 NNE 1009,2 20 0 0,6
09.08.2018 02:00:00 18,3 16,3 17,4 31,0 28,2 13 7 34 18 ESE 1010,9 14 0 0,4
09.08.2018 01:00:00 18,9 16,1 17,6 31,2 28,2 9 5 23 12 NNE 1009,9 18 0 1,0
09.08.2018 00:00:00 21,6 14,3 21,2 31,3 28,3 9 5 19 10 NNE 1012,0 20 0 0,0
08.08.2018 23:00:00 21,4 15,2 21,2 31,4 28,3 9 5 25 14 NNE 1012,0 20 0 0,0
08.08.2018 22:00:00 21,7 16,0 21,6 31,3 28,3 17 9 42 23 N 1011,8 20 0 0,0
08.08.2018 21:00:00 22,6 17,3 23,0 31,2 28,4 31 17 40 22 N 1011,6 20 33 0,0
08.08.2018 20:00:00 23,9 17,6 26,4 30,9 28,4 28 15 39 21 N 1011,6 20 60 0,0
08.08.2018 19:00:00 24,7 17,7 28,9 30,6 28,4 27 15 35 19 N 1012,0 20 58 0,0

tt = Température de l'air
td = dewpoint
tt 5cm = Température de l'air 5cm
tt -20cm = Température de l'air -20cm
tt -100cm = Température de l'air -100cm
ff = Vitesse du vent
fx = gusts
dd = Direction du vent
ppp = reduced air pressure
vv = visibility
sd = Ensoleillement
rr = Quantités de précipitations

stations d'obs. à proximité